sat.trackr.live / text

‹ back to catalog

STARLINK-37226

NORAD 68619 · 2026-073T

PAYLOAD ACTIVE UNKNOWN

§ Identity

Operator
Country
US
Launch date
2026-04-07
Launch site
AFWTR
Launch vehicle
Mass (kg)
RCS (m²)

Purposes: comms

External: N2YO · Heavens-Above · Gunter

§ Orbital elements

Epoch: 2026-05-25T04:00:03.998880Z

Period
92.19 min
Inclination
97.2852°
Eccentricity
0.0001547
Mean motion
15.62036495 rev/d
Perigee alt
380.7 km
Apogee alt
382.8 km
Semi-major
6,759.9 km
B*
-2.5383e-2
RAAN
344.7028°
Arg perigee
83.3110°
Mean anomaly
328.2995°
Rev number
599

§ Raw data

STARLINK-372261 68619U 26073T   26145.16671295 -.01952824  00000+0 -25383-1 0  99972 68619  97.2852 344.7028 0001547  83.3110 328.2995 15.62036495  5998

JSON: /api/v1/satellites/68619 · /tle

For live sub-satellite position, see the globe view (requires WebGL).

§ Visibility from observer

Set your observer location to see the next 7 days of passes ≥ 10°. The values pass through the URL so the page stays shareable.

No JS? Fill the form by hand. The geolocation button needs JavaScript.